Location: Newark
(45.8667°N, 9.7333°E)
Time: 22:00:59
(UTC+00:00)

Transit 4A - Pass Details

Date: 29 January 2020
Orbit: 872 x 973 km, 66.8° (Epoch: 20 February)

Event Time Altitude Azimuth Distance (km) Brightness Sun altitude
Rises 12:08:19 0° 330° (NNW) 3,475 10.5 25.7°
Reaches altitude 10° 12:11:12 10° 343° (NNW) 2,531 9.8 25.6°
Maximum altitude 12:16:07 27° 40° (NE) 1,611 8.9 25.4°
Drops below altitude 10° 12:21:02 10° 98° (E) 2,533 10.2 25.3°
Sets 12:23:55 0° 110° (ESE) 3,478 11.0 25.2°
